Location: American Medical Response
(33.3472°N, 96.5511°W)
Time: 11:45:15
(UTC+00:00)

Lacrosse 5 rocket - Pass Details

Date: 08 December 2021
Orbit: 457 x 634 km, 57.0° (Epoch: 23 January)

Event Time Altitude Azimuth Distance (km) Brightness Sun altitude
Rises 23:43:37 0° 339° (NNW) 2,629 4.8 -5.5°
Reaches altitude 10° 23:46:35 10° 3° (N) 1,780 3.7 -6.1°
Maximum altitude 23:48:57 15° 39° (NE) 1,518 3.0 -6.6°
Drops below altitude 10° 23:51:23 10° 75° (ENE) 1,841 3.3 -7.0°
Enters shadow 23:52:02 - 82° (E) 2,007 3.6 -7.2°
